Location: De Har
(53.3413°N, 6.6858°E)
Time: 08:08:16
(UTC+00:00)

Cosmos 2084 Rocket - Pass Details

Date: 22 April 2026
Orbit: 530 x 579 km, 62.8° (Epoch: 15 May)

Event Time Altitude Azimuth Distance (km) Brightness Sun altitude
Rises 01:56:04 0° 310° (NW) 2,753 6.9 -17.6°
Reaches altitude 10° 01:58:17 10° 308° (NW) 1,862 6.0 -17.4°
Maximum altitude 02:02:28 68° 226° (SW) 614 3.3 -17.0°
Drops below altitude 10° 02:06:40 10° 143° (SE) 1,877 5.9 -16.6°
Sets 02:08:55 0° 141° (SE) 2,777 6.8 -16.4°
